sat.trackr.live / text

‹ back to catalog

STARLINK-32379

NORAD 61851 · 2024-202G

PAYLOAD ACTIVE UNKNOWN

§ Identity

Operator
Country
US
Launch date
2024-11-07
Launch site
AFETR
Launch vehicle
Mass (kg)
RCS (m²)

Purposes: comms

External: N2YO · Heavens-Above · Gunter

§ Orbital elements

Epoch: 2026-05-25T00:38:46.605984Z

Period
94.27 min
Inclination
43.0008°
Eccentricity
0.0001457
Mean motion
15.27577083 rev/d
Perigee alt
482.1 km
Apogee alt
484.1 km
Semi-major
6,861.2 km
B*
5.6777e-5
RAAN
155.5256°
Arg perigee
258.7773°
Mean anomaly
101.2915°
Rev number
8,713

§ Raw data

STARLINK-323791 61851U 24202G   26145.02692831  .00001300  00000+0  56777-4 0  99992 61851  43.0008 155.5256 0001457 258.7773 101.2915 15.27577083 87136

JSON: /api/v1/satellites/61851 · /tle

For live sub-satellite position, see the globe view (requires WebGL).

§ Visibility from observer

Set your observer location to see the next 7 days of passes ≥ 10°. The values pass through the URL so the page stays shareable.

No JS? Fill the form by hand. The geolocation button needs JavaScript.